COSMOS 1953

Last updated on Tue Dec 16 2025 00:02:16 GMT+0000 (Coordinated Universal Time)

1 19210U 88050A 25349.19458311 .00004950 00000+0 18528-3 0 9993 2 19210 82.5093 243.1181 0013665 64.0849 296.1797 15.26969019 24885
UTC large
Height (km)
Speed (km/s)
/
Latitude / Longitude
Inclination (degrees)
Orbital Period (minutes)
Azimuth
Elevation
Range (km)
Doppler Factor

Next 0 passes for location: London (51.5072 / 0.1276)

Sorry there are no passes over London.